Find Starlink 36404

NORAD ID: 67664 Int'l Des: 2026-022 Owner: SPXS Country: US Constellation: starlink operational
LEOCIRCULARRETROGRADE

Current View

Loading 3D Globe...

About Starlink 36404

Description loading...

Upcoming Passes

Passes for default location (London). Set your location on the main map for personalized predictions.

Altitude History

Loading altitude history...

Two-Line Element Set

1 67664U 26022S 26146.04707531 .00026689 00000-0 82568-3 0 9990
2 67664 97.2841 179.2255 0001441 100.8875 259.2530 15.33460945 17422
Epoch: May 26, 2026 • Age: 13 hours

Current Status

Altitude 477.7 km
Velocity 7.63 km/s
Sub-Earth Point 78.84°N, 55.57°W
Launch Date Feb 2, 2026
Age 0.3 years
Type internet

Technical Details

Classification Payload
Mass 575.00 kg
Dry Mass 530.00 kg
Total Mass 575.00 kg
Length 0.30 m
Diameter 4.10 m
Span 29.00 m
Shape Box + pan
Manufacturer SPXS
Bus Type Starlink V2MO
Phase Status In Orbit
Owner/State SPXS/US

Most Searched